| time (UTC) | temp F | wind direction | speed MPH | gust MPH | rain 1hr in | rain 24hr in | rain mn in | humidity % | barometer mb |
| 20260509184053 | 53 | 343 | 7.0 | 15.0 | 0.00 | 0.00 | 0.00 | 55 | 1018.0 |
| 20260509183530 | 53 | 22 | 8.0 | 15.0 | 0.00 | 0.00 | 0.00 | 54 | 1017.9 |
| 20260509183032 | 53 | 302 | 5.0 | 13.0 | 0.00 | 0.00 | 0.00 | 55 | 1017.7 |
| 20260509182533 | 53 | 341 | 8.0 | 12.0 | 0.00 | 0.00 | 0.00 | 55 | 1017.7 |
| 20260509182055 | 53 | 323 | 5.0 | 12.0 | 0.00 | 0.00 | 0.00 | 56 | 1017.9 |
| 20260509181539 | 53 | 359 | 5.0 | 15.0 | 0.00 | 0.00 | 0.00 | 55 | 1018.0 |
| 20260509181042 | 53 | 321 | 8.0 | 15.0 | 0.00 | 0.00 | 0.00 | 55 | 1018.1 |
| 20260509180524 | 53 | 351 | 8.0 | 14.0 | 0.00 | 0.00 | 0.00 | 54 | 1018.0 |
| 20260509180031 | 53 | 1 | 6.0 | 12.0 | 0.00 | 0.00 | 0.00 | 55 | 1018.1 |
| 20260509175534 | 53 | 1 | 4.0 | 12.0 | 0.00 | 0.00 | 0.00 | 56 | 1018.1 |
| 20260509175035 | 53 | 37 | 7.0 | 13.0 | 0.00 | 0.00 | 0.00 | 55 | 1018.1 |
| 20260509174538 | 53 | 1 | 6.0 | 14.0 | 0.00 | 0.00 | 0.00 | 55 | 1018.0 |
| 20260509174040 | 53 | 8 | 7.0 | 14.0 | 0.00 | 0.00 | 0.00 | 55 | 1018.1 |
| 20260509173538 | 53 | 332 | 7.0 | 13.0 | 0.00 | 0.00 | 0.00 | 55 | 1018.1 |
| 20260509173041 | 53 | 318 | 7.0 | 12.0 | 0.00 | 0.00 | 0.00 | 54 | 1018.1 |
| 20260509172543 | 53 | 304 | 5.0 | 11.0 | 0.00 | 0.00 | 0.00 | 55 | 1018.0 |
| 20260509172028 | 53 | 334 | 7.0 | 16.0 | 0.00 | 0.00 | 0.00 | 54 | 1018.0 |
| 20260509171536 | 53 | 288 | 9.0 | 16.0 | 0.00 | 0.00 | 0.00 | 53 | 1018.1 |
| 20260509171039 | 54 | 8 | 4.0 | 14.0 | 0.00 | 0.00 | 0.00 | 54 | 1017.9 |
| 20260509170543 | 54 | 1 | 8.0 | 14.0 | 0.00 | 0.00 | 0.00 | 53 | 1018.1 |
| 20260509170026 | 54 | 332 | 7.0 | 11.0 | 0.00 | 0.00 | 0.00 | 53 | 1017.9 |
| 20260509165550 | 54 | 334 | 5.0 | 15.0 | 0.00 | 0.00 | 0.00 | 53 | 1017.6 |
| 20260509165034 | 54 | 359 | 6.0 | 15.0 | 0.00 | 0.00 | 0.00 | 52 | 1017.9 |
| 20260509164557 | 54 | 327 | 6.0 | 12.0 | 0.00 | 0.00 | 0.00 | 52 | 1018.0 |
| 20260509164037 | 55 | 351 | 6.0 | 16.0 | 0.00 | 0.00 | 0.00 | 51 | 1018.0 |
| 20260509163539 | 55 | 347 | 5.0 | 9.0 | 0.00 | 0.00 | 0.00 | 51 | 1018.1 |
| 20260509163042 | 55 | 1 | 5.0 | 12.0 | 0.00 | 0.00 | 0.00 | 51 | 1018.1 |
| 20260509162544 | 55 | 360 | 6.0 | 12.0 | 0.00 | 0.00 | 0.00 | 52 | 1018.1 |
| 20260509162026 | 55 | 341 | 6.0 | 12.0 | 0.00 | 0.00 | 0.00 | 51 | 1018.1 |
| 20260509161529 | 55 | 13 | 5.0 | 12.0 | 0.00 | 0.00 | 0.00 | 51 | 1018.3 |
| 20260509161032 | 54 | 307 | 7.0 | 15.0 | 0.00 | 0.00 | 0.00 | 51 | 1018.2 |
| 20260509160552 | 54 | 59 | 5.0 | 13.0 | 0.00 | 0.00 | 0.00 | 51 | 1018.4 |
| 20260509160039 | 54 | 359 | 7.0 | 13.0 | 0.00 | 0.00 | 0.00 | 52 | 1018.4 |
| 20260509155541 | 54 | 359 | 6.0 | 13.0 | 0.00 | 0.00 | 0.00 | 53 | 1018.6 |
| 20260509155043 | 54 | 18 | 5.0 | 13.0 | 0.00 | 0.00 | 0.00 | 51 | 1018.7 |
| 20260509154542 | 54 | 322 | 6.0 | 11.0 | 0.00 | 0.00 | 0.00 | 52 | 1018.5 |
| 20260509154045 | 54 | 1 | 5.0 | 13.0 | 0.00 | 0.00 | 0.00 | 53 | 1018.5 |
| 20260509153528 | 54 | 328 | 6.0 | 13.0 | 0.00 | 0.00 | 0.00 | 51 | 1018.4 |
| 20260509153050 | 53 | 1 | 4.0 | 10.0 | 0.00 | 0.00 | 0.00 | 54 | 1018.5 |
| 20260509152529 | 54 | 340 | 6.0 | 13.0 | 0.00 | 0.00 | 0.00 | 53 | 1018.6 |
| 20260509152034 | 54 | 354 | 4.0 | 9.0 | 0.00 | 0.00 | 0.00 | 54 | 1018.7 |
| 20260509151533 | 53 | 345 | 4.0 | 11.0 | 0.00 | 0.00 | 0.00 | 53 | 1018.7 |
| 20260509151036 | 53 | 6 | 4.0 | 11.0 | 0.00 | 0.00 | 0.00 | 53 | 1018.7 |
| 20260509150539 | 53 | 360 | 5.0 | 10.0 | 0.00 | 0.00 | 0.00 | 53 | 1018.7 |
| 20260509150047 | 53 | 340 | 6.0 | 10.0 | 0.00 | 0.00 | 0.00 | 52 | 1018.9 |
| 20260509145531 | 53 | 330 | 5.0 | 12.0 | 0.00 | 0.00 | 0.00 | 51 | 1019.0 |
| 20260509145035 | 53 | 349 | 4.0 | 12.0 | 0.00 | 0.00 | 0.00 | 53 | 1018.8 |
| 20260509144539 | 53 | 359 | 6.0 | 12.0 | 0.00 | 0.00 | 0.00 | 52 | 1018.8 |
| 20260509144044 | 53 | 1 | 5.0 | 10.0 | 0.00 | 0.00 | 0.00 | 50 | 1019.0 |
| 20260509143527 | 53 | 14 | 5.0 | 9.0 | 0.00 | 0.00 | 0.00 | 61 | 1019.3 |
| 20260509143031 | 52 | 1 | 6.0 | 9.0 | 0.00 | 0.00 | 0.00 | 62 | 1019.4 |
| 20260509142535 | 52 | 349 | 3.0 | 9.0 | 0.00 | 0.00 | 0.00 | 65 | 1019.3 |
| 20260509142039 | 52 | 354 | 4.0 | 11.0 | 0.00 | 0.00 | 0.00 | 66 | 1019.1 |
| 20260509141543 | 51 | 1 | 6.0 | 11.0 | 0.00 | 0.00 | 0.00 | 71 | 1019.4 |
| 20260509141044 | 51 | 1 | 5.0 | 10.0 | 0.00 | 0.00 | 0.00 | 72 | 1019.2 |
| 20260509140546 | 50 | 12 | 6.0 | 12.0 | 0.00 | 0.00 | 0.00 | 71 | 1019.0 |
| 20260509140029 | 50 | 359 | 8.0 | 12.0 | 0.00 | 0.00 | 0.00 | 73 | 1019.1 |
| 20260509135536 | 50 | 356 | 8.0 | 11.0 | 0.00 | 0.00 | 0.00 | 73 | 1019.2 |
| 20260509135058 | 50 | 1 | 6.0 | 11.0 | 0.00 | 0.00 | 0.00 | 73 | 1019.2 |
| 20260509134542 | 49 | 6 | 6.0 | 11.0 | 0.00 | 0.00 | 0.00 | 73 | 1019.3 |
| 20260509134044 | 49 | 334 | 7.0 | 12.0 | 0.00 | 0.00 | 0.00 | 72 | 1019.2 |
| 20260509133529 | 49 | 331 | 8.0 | 12.0 | 0.00 | 0.00 | 0.00 | 73 | 1019.1 |
| 20260509133032 | 49 | 34 | 8.0 | 12.0 | 0.00 | 0.00 | 0.00 | 74 | 1019.2 |
| 20260509132556 | 48 | 14 | 8.0 | 12.0 | 0.00 | 0.00 | 0.00 | 75 | 1019.3 |
| 20260509132039 | 49 | 8 | 7.0 | 11.0 | 0.00 | 0.00 | 0.00 | 77 | 1019.3 |
| 20260509131544 | 49 | 360 | 7.0 | 11.0 | 0.00 | 0.00 | 0.00 | 76 | 1019.1 |
| 20260509131106 | 48 | 357 | 6.0 | 11.0 | 0.00 | 0.00 | 0.00 | 76 | 1019.1 |
| 20260509130528 | 48 | 1 | 6.0 | 13.0 | 0.00 | 0.00 | 0.00 | 75 | 1019.3 |
| 20260509130031 | 48 | 360 | 9.0 | 13.0 | 0.00 | 0.00 | 0.00 | 74 | 1019.3 |
| 20260509125535 | 48 | 19 | 8.0 | 14.0 | 0.00 | 0.00 | 0.00 | 76 | 1019.2 |
| 20260509125056 | 48 | 15 | 8.0 | 15.0 | 0.00 | 0.00 | 0.00 | 74 | 1019.3 |
| 20260509124556 | 49 | 360 | 9.0 | 15.0 | 0.00 | 0.00 | 0.00 | 73 | 1019.1 |
| 20260509124038 | 49 | 350 | 4.0 | 10.0 | 0.00 | 0.00 | 0.00 | 69 | 1019.0 |
| 20260509123540 | 49 | 17 | 6.0 | 12.0 | 0.00 | 0.00 | 0.00 | 68 | 1018.9 |
| 20260509123029 | 49 | 349 | 8.0 | 12.0 | 0.00 | 0.00 | 0.00 | 63 | 1018.9 |
| 20260509122534 | 50 | 359 | 5.0 | 10.0 | 0.00 | 0.00 | 0.00 | 66 | 1019.0 |
| 20260509122056 | 50 | 8 | 5.0 | 10.0 | 0.00 | 0.00 | 0.00 | 64 | 1019.0 |
| 20260509121538 | 49 | 13 | 5.0 | 8.0 | 0.00 | 0.00 | 0.00 | 64 | 1019.1 |
| 20260509121040 | 49 | 4 | 4.0 | 9.0 | 0.00 | 0.00 | 0.00 | 64 | 1018.9 |
| 20260509120543 | 49 | 352 | 5.0 | 9.0 | 0.00 | 0.00 | 0.00 | 64 | 1018.9 |
| 20260509120028 | 49 | 359 | 3.0 | 6.0 | 0.00 | 0.00 | 0.00 | 65 | 1018.8 |
| 20260509115529 | 48 | 12 | 3.0 | 8.0 | 0.00 | 0.00 | 0.00 | 65 | 1018.5 |
| 20260509115051 | 48 | 9 | 2.0 | 8.0 | 0.00 | 0.00 | 0.00 | 67 | 1018.4 |
| 20260509114534 | 48 | 290 | 4.0 | 8.0 | 0.00 | 0.00 | 0.00 | 66 | 1018.1 |
| 20260509114037 | 47 | 315 | 3.0 | 5.0 | 0.00 | 0.00 | 0.00 | 67 | 1018.1 |
| 20260509113540 | 47 | 311 | 3.0 | 6.0 | 0.00 | 0.00 | 0.00 | 69 | 1018.2 |
| 20260509113103 | 47 | 307 | 4.0 | 0.0 | 0.00 | 0.00 | 0.00 | 71 | 1018.1 |
| 20260509112526 | 47 | 324 | 4.0 | 6.0 | 0.00 | 0.00 | 0.00 | 72 | 1018.4 |
| 20260509112034 | 47 | 274 | 3.0 | 6.0 | 0.00 | 0.00 | 0.00 | 72 | 1018.4 |
| 20260509111534 | 46 | 351 | 2.0 | 6.0 | 0.00 | 0.00 | 0.00 | 72 | 1018.4 |
| 20260509111037 | 47 | 313 | 3.0 | 4.0 | 0.00 | 0.00 | 0.00 | 73 | 1018.4 |
| 20260509110537 | 47 | 308 | 0.0 | 0.0 | 0.00 | 0.00 | 0.00 | 77 | 1018.1 |
| 20260509110024 | 46 | 359 | 0.0 | 2.0 | 0.00 | 0.00 | 0.00 | 77 | 1017.9 |
| 20260509105529 | 46 | 359 | 0.0 | 3.0 | 0.00 | 0.00 | 0.00 | 79 | 1018.0 |
| 20260509105031 | 46 | 289 | 1.0 | 3.0 | 0.00 | 0.00 | 0.00 | 80 | 1018.1 |
| 20260509104535 | 45 | 323 | 0.0 | 0.0 | 0.00 | 0.00 | 0.00 | 82 | 1018.1 |
| 20260509104101 | 45 | 272 | 0.0 | 2.0 | 0.00 | 0.00 | 0.00 | 83 | 1017.9 |
| 20260509103544 | 45 | 272 | 1.0 | 2.0 | 0.00 | 0.00 | 0.00 | 84 | 1017.7 |
| 20260509103044 | 44 | 272 | 1.0 | 3.0 | 0.00 | 0.00 | 0.00 | 85 | 1017.6 |
| 20260509102607 | 44 | 293 | 2.0 | 4.0 | 0.00 | 0.00 | 0.00 | 85 | 1017.5 |
| 20260509102048 | 43 | 293 | 2.0 | 4.0 | 0.00 | 0.00 | 0.00 | 86 | 1017.4 |
| 20260509101530 | 43 | 300 | 0.0 | 3.0 | 0.00 | 0.00 | 0.00 | 87 | 1017.4 |
| 20260509101035 | 43 | 300 | 1.0 | 3.0 | 0.00 | 0.00 | 0.00 | 87 | 1017.4 |
| 20260509100543 | 43 | 304 | 1.0 | 2.0 | 0.00 | 0.00 | 0.00 | 87 | 1017.4 |
| 20260509100024 | 43 | 304 | 1.0 | 2.0 | 0.00 | 0.00 | 0.00 | 86 | 1017.2 |
| 20260509095530 | 44 | 288 | 0.0 | 2.0 | 0.00 | 0.00 | 0.00 | 87 | 1017.1 |
| 20260509095034 | 44 | 288 | 1.0 | 3.0 | 0.00 | 0.00 | 0.00 | 86 | 1017.1 |
| 20260509094557 | 44 | 288 | 2.0 | 3.0 | 0.00 | 0.00 | 0.00 | 85 | 1017.1 |
| 20260509094038 | 44 | 266 | 1.0 | 2.0 | 0.00 | 0.00 | 0.00 | 84 | 1017.0 |
| 20260509093540 | 44 | 213 | 0.0 | 4.0 | 0.00 | 0.00 | 0.00 | 84 | 1016.9 |
| 20260509093103 | 45 | 212 | 3.0 | 4.0 | 0.00 | 0.00 | 0.00 | 83 | 1016.7 |
| 20260509092545 | 45 | 247 | 0.0 | 0.0 | 0.00 | 0.00 | 0.00 | 82 | 1016.6 |
| 20260509092030 | 45 | 257 | 0.0 | 3.0 | 0.00 | 0.00 | 0.00 | 81 | 1016.3 |
| 20260509091533 | 45 | 257 | 1.0 | 3.0 | 0.00 | 0.00 | 0.00 | 80 | 1016.1 |
| 20260509091037 | 45 | 269 | 2.0 | 3.0 | 0.00 | 0.00 | 0.00 | 80 | 1016.1 |
| 20260509090539 | 45 | 281 | 2.0 | 3.0 | 0.00 | 0.00 | 0.00 | 80 | 1016.1 |
| 20260509090105 | 46 | 314 | 1.0 | 4.0 | 0.00 | 0.00 | 0.00 | 80 | 1016.0 |
| 20260509085549 | 46 | 283 | 3.0 | 4.0 | 0.00 | 0.00 | 0.00 | 80 | 1016.0 |
| 20260509085030 | 46 | 292 | 2.0 | 4.0 | 0.00 | 0.00 | 0.00 | 80 | 1016.0 |
| 20260509084536 | 46 | 295 | 1.0 | 5.0 | 0.00 | 0.00 | 0.00 | 80 | 1015.9 |
| 20260509084043 | 46 | 293 | 3.0 | 6.0 | 0.00 | 0.00 | 0.00 | 79 | 1015.9 |
| 20260509083547 | 46 | 317 | 2.0 | 6.0 | 0.00 | 0.00 | 0.00 | 80 | 1015.9 |
| 20260509083028 | 46 | 334 | 2.0 | 5.0 | 0.00 | 0.00 | 0.00 | 80 | 1015.8 |
| 20260509082613 | 46 | 339 | 3.0 | 6.0 | 0.00 | 0.00 | 0.00 | 80 | 1015.8 |
| 20260509082056 | 47 | 308 | 2.0 | 6.0 | 0.00 | 0.00 | 0.00 | 80 | 1015.9 |
| 20260509081537 | 47 | 320 | 3.0 | 5.0 | 0.00 | 0.00 | 0.00 | 80 | 1015.9 |
| 20260509081040 | 47 | 360 | 2.0 | 6.0 | 0.00 | 0.00 | 0.00 | 80 | 1015.9 |
| 20260509080541 | 47 | 344 | 2.0 | 7.0 | 0.00 | 0.16 | 0.00 | 80 | 1015.8 |
| 20260509080045 | 46 | 343 | 3.0 | 7.0 | 0.00 | 0.16 | 0.00 | 81 | 1015.9 |
| 20260509075527 | 46 | 342 | 3.0 | 6.0 | 0.00 | 0.16 | 0.00 | 83 | 1015.9 |
| 20260509075031 | 46 | 337 | 2.0 | 5.0 | 0.00 | 0.16 | 0.00 | 85 | 1015.9 |
| 20260509074535 | 45 | 332 | 1.0 | 3.0 | 0.00 | 0.16 | 0.00 | 85 | 1015.9 |
| 20260509074057 | 46 | 311 | 0.0 | 0.0 | 0.00 | 0.16 | 0.00 | 85 | 1015.9 |
| 20260509073558 | 46 | 309 | 0.0 | 0.0 | 0.00 | 0.16 | 0.00 | 85 | 1016.0 |
| 20260509073040 | 46 | 309 | 0.0 | 0.0 | 0.00 | 0.16 | 0.00 | 86 | 1016.1 |
| 20260509072528 | 45 | 309 | 0.0 | 0.0 | 0.00 | 0.16 | 0.00 | 86 | 1016.0 |
| 20260509072031 | 45 | 303 | 0.0 | 0.0 | 0.00 | 0.16 | 0.00 | 85 | 1016.0 |
| 20260509071534 | 45 | 303 | 0.0 | 0.0 | 0.00 | 0.16 | 0.00 | 85 | 1016.0 |
| 20260509071057 | 46 | 303 | 0.0 | 0.0 | 0.00 | 0.16 | 0.00 | 85 | 1015.9 |
| 20260509070538 | 46 | 303 | 0.0 | 0.0 | 0.00 | 0.39 | 0.00 | 84 | 1015.9 |
| 20260509070046 | 46 | 304 | 0.0 | 1.0 | 0.00 | 0.39 | 0.00 | 84 | 1016.0 |
| 20260509065528 | 46 | 309 | 1.0 | 1.0 | 0.00 | 0.39 | 0.00 | 84 | 1016.0 |
| 20260509065033 | 46 | 314 | 0.0 | 0.0 | 0.00 | 0.39 | 0.00 | 84 | 1016.1 |
| 20260509064537 | 46 | 314 | 0.0 | 0.0 | 0.00 | 0.39 | 0.00 | 83 | 1016.0 |
| 20260509064101 | 46 | 314 | 0.0 | 0.0 | 0.00 | 0.39 | 0.00 | 83 | 1015.8 |
| 20260509063543 | 47 | 314 | 0.0 | 3.0 | 0.00 | 0.39 | 0.00 | 83 | 1015.6 |
| 20260509063026 | 47 | 314 | 0.0 | 3.0 | 0.00 | 0.39 | 0.00 | 82 | 1015.8 |
| 20260509062612 | 47 | 315 | 2.0 | 5.0 | 0.00 | 0.39 | 0.00 | 82 | 1015.8 |
| 20260509062034 | 47 | 283 | 3.0 | 4.0 | 0.00 | 0.39 | 0.00 | 82 | 1015.6 |
| 20260509061537 | 47 | 290 | 2.0 | 7.0 | 0.00 | 0.39 | 0.00 | 81 | 1015.6 |
| 20260509061025 | 48 | 256 | 4.0 | 7.0 | 0.00 | 0.39 | 0.00 | 80 | 1015.4 |
| 20260509060528 | 48 | 283 | 3.0 | 5.0 | 0.00 | 0.63 | 0.00 | 79 | 1015.4 |
| 20260509060037 | 48 | 324 | 2.0 | 6.0 | 0.00 | 0.63 | 0.00 | 79 | 1015.3 |
| 20260509055603 | 48 | 309 | 4.0 | 6.0 | 0.00 | 0.63 | 0.00 | 80 | 1015.1 |
| 20260509055043 | 48 | 327 | 2.0 | 4.0 | 0.00 | 0.63 | 0.00 | 79 | 1014.8 |
| 20260509054527 | 48 | 360 | 2.0 | 3.0 | 0.00 | 0.63 | 0.00 | 79 | 1014.3 |
| 20260509054034 | 48 | 347 | 2.0 | 3.0 | 0.00 | 0.63 | 0.00 | 79 | 1014.3 |
| 20260509053539 | 48 | 338 | 1.0 | 3.0 | 0.00 | 0.63 | 0.00 | 79 | 1014.4 |
| 20260509053045 | 48 | 1 | 3.0 | 3.0 | 0.00 | 0.63 | 0.00 | 78 | 1014.5 |
| 20260509052526 | 49 | 1 | 2.0 | 4.0 | 0.00 | 0.63 | 0.00 | 78 | 1014.6 |
| 20260509052029 | 49 | 354 | 2.0 | 4.0 | 0.00 | 0.63 | 0.00 | 77 | 1014.8 |
| 20260509051535 | 49 | 1 | 2.0 | 4.0 | 0.00 | 0.63 | 0.00 | 77 | 1014.9 |
| 20260509051058 | 49 | 344 | 2.0 | 4.0 | 0.00 | 0.63 | 0.00 | 76 | 1014.7 |
| 20260509050524 | 49 | 358 | 3.0 | 4.0 | 0.00 | 1.18 | 0.00 | 76 | 1014.8 |
| 20260509050028 | 49 | 359 | 1.0 | 3.0 | 0.00 | 1.18 | 0.00 | 76 | 1014.8 |
| 20260509045533 | 49 | 326 | 1.0 | 3.0 | 0.00 | 1.18 | 0.00 | 76 | 1014.8 |
| 20260509045036 | 49 | 347 | 2.0 | 3.0 | 0.00 | 1.18 | 0.00 | 76 | 1014.7 |
| 20260509044540 | 50 | 1 | 2.0 | 3.0 | 0.00 | 1.18 | 0.00 | 75 | 1014.8 |
| 20260509044042 | 50 | 337 | 2.0 | 4.0 | 0.00 | 1.18 | 0.00 | 75 | 1014.8 |
| 20260509043526 | 50 | 344 | 2.0 | 5.0 | 0.00 | 1.18 | 0.00 | 74 | 1014.6 |
| 20260509043028 | 50 | 348 | 2.0 | 5.0 | 0.00 | 1.18 | 0.00 | 74 | 1014.5 |
| 20260509042551 | 50 | 4 | 3.0 | 5.0 | 0.00 | 1.18 | 0.00 | 74 | 1014.5 |
| 20260509042033 | 50 | 359 | 2.0 | 3.0 | 0.00 | 1.18 | 0.00 | 74 | 1014.5 |
| 20260509041540 | 50 | 353 | 1.0 | 3.0 | 0.00 | 1.18 | 0.00 | 74 | 1014.5 |
| 20260509041104 | 50 | 352 | 1.0 | 3.0 | 0.00 | 1.18 | 0.00 | 74 | 1014.5 |
| 20260509040524 | 50 | 342 | 0.0 | 2.0 | 0.00 | 1.54 | 0.00 | 73 | 1014.6 |
| 20260509040032 | 50 | 338 | 0.0 | 2.0 | 0.00 | 1.54 | 0.00 | 73 | 1014.3 |
| 20260509035536 | 50 | 325 | 1.0 | 2.0 | 0.00 | 1.54 | 0.00 | 73 | 1014.2 |
| 20260509035043 | 50 | 308 | 1.0 | 4.0 | 0.00 | 1.54 | 0.00 | 73 | 1014.2 |
| 20260509034527 | 50 | 337 | 2.0 | 5.0 | 0.00 | 1.54 | 0.00 | 72 | 1014.1 |
| 20260509034030 | 51 | 348 | 2.0 | 5.0 | 0.00 | 1.54 | 0.00 | 72 | 1013.9 |
| 20260509033532 | 51 | 355 | 2.0 | 4.0 | 0.00 | 1.54 | 0.00 | 72 | 1013.8 |
| 20260509033036 | 51 | 328 | 2.0 | 3.0 | 0.00 | 1.54 | 0.00 | 71 | 1013.9 |
| 20260509032558 | 51 | 359 | 1.0 | 5.0 | 0.00 | 1.54 | 0.00 | 71 | 1013.9 |
| 20260509032037 | 51 | 284 | 2.0 | 5.0 | 0.00 | 1.54 | 0.00 | 71 | 1014.1 |
| 20260509031542 | 51 | 328 | 1.0 | 4.0 | 0.00 | 1.54 | 0.00 | 71 | 1014.1 |
| 20260509031024 | 51 | 345 | 1.0 | 3.0 | 0.00 | 1.54 | 0.00 | 71 | 1014.1 |
| 20260509030548 | 51 | 356 | 2.0 | 4.0 | 0.00 | 1.54 | 0.39 | 70 | 1014.0 |
| 20260509030035 | 52 | 289 | 2.0 | 4.0 | 0.00 | 1.54 | 0.39 | 70 | 1013.9 |
| 20260509025540 | 52 | 1 | 2.0 | 4.0 | 0.00 | 1.54 | 0.39 | 69 | 1013.8 |
| 20260509025024 | 52 | 353 | 2.0 | 4.0 | 0.00 | 1.54 | 0.39 | 69 | 1013.8 |
| 20260509024534 | 52 | 336 | 2.0 | 4.0 | 0.00 | 1.54 | 0.39 | 69 | 1013.9 |
| 20260509024036 | 52 | 359 | 2.0 | 4.0 | 0.00 | 1.54 | 0.39 | 69 | 1013.8 |
| 20260509023538 | 52 | 359 | 2.0 | 4.0 | 0.00 | 1.54 | 0.39 | 69 | 1013.6 |
| 20260509023042 | 52 | 331 | 3.0 | 4.0 | 0.00 | 1.54 | 0.39 | 68 | 1013.4 |
| 20260509022544 | 52 | 330 | 1.0 | 4.0 | 0.00 | 1.54 | 0.39 | 68 | 1013.5 |
| 20260509022046 | 52 | 333 | 0.0 | 5.0 | 0.00 | 1.54 | 0.39 | 68 | 1013.5 |
| 20260509021527 | 53 | 338 | 2.0 | 6.0 | 0.00 | 1.54 | 0.39 | 68 | 1013.4 |
| 20260509021030 | 53 | 356 | 3.0 | 6.0 | 0.00 | 1.54 | 0.39 | 67 | 1013.2 |
| 20260509020555 | 53 | 1 | 3.0 | 5.0 | 0.00 | 1.54 | 0.39 | 67 | 1013.4 |
| 20260509020058 | 53 | 359 | 3.0 | 5.0 | 0.00 | 1.54 | 0.39 | 66 | 1013.4 |
| 20260509015540 | 53 | 359 | 3.0 | 5.0 | 0.00 | 1.54 | 0.39 | 66 | 1013.6 |
| 20260509015043 | 53 | 359 | 3.0 | 5.0 | 0.00 | 1.54 | 0.39 | 65 | 1013.6 |
| 20260509014525 | 53 | 340 | 3.0 | 6.0 | 0.00 | 1.54 | 0.39 | 66 | 1013.7 |
| 20260509014029 | 54 | 299 | 3.0 | 6.0 | 0.00 | 1.54 | 0.39 | 65 | 1013.5 |
| 20260509013555 | 54 | 338 | 1.0 | 4.0 | 0.00 | 1.54 | 0.39 | 65 | 1013.3 |
| 20260509013040 | 54 | 338 | 2.0 | 3.0 | 0.00 | 1.54 | 0.39 | 66 | 1013.3 |
| 20260509012541 | 54 | 359 | 1.0 | 6.0 | 0.00 | 1.54 | 0.39 | 65 | 1013.3 |
| 20260509012044 | 54 | 295 | 2.0 | 6.0 | 0.00 | 1.54 | 0.39 | 63 | 1013.2 |
| 20260509011544 | 54 | 329 | 2.0 | 5.0 | 0.00 | 1.54 | 0.39 | 64 | 1013.3 |
| 20260509011047 | 55 | 347 | 3.0 | 4.0 | 0.00 | 1.54 | 0.39 | 64 | 1013.4 |
| 20260509010527 | 55 | 9 | 2.0 | 7.0 | 0.00 | 1.54 | 0.39 | 62 | 1013.4 |
| 20260509010053 | 55 | 359 | 2.0 | 7.0 | 0.00 | 1.54 | 0.39 | 62 | 1013.3 |
| 20260509005555 | 55 | 331 | 1.0 | 6.0 | 0.00 | 1.54 | 0.39 | 62 | 1013.4 |
| 20260509005036 | 55 | 359 | 2.0 | 8.0 | 0.00 | 1.54 | 0.39 | 61 | 1013.1 |
| 20260509004539 | 55 | 323 | 5.0 | 11.0 | 0.00 | 1.54 | 0.39 | 60 | 1013.0 |
| 20260509004039 | 55 | 297 | 5.0 | 11.0 | 0.00 | 1.54 | 0.39 | 61 | 1012.8 |
| 20260509003546 | 56 | 340 | 3.0 | 6.0 | 0.00 | 1.54 | 0.39 | 61 | 1012.7 |
| 20260509003027 | 56 | 337 | 4.0 | 8.0 | 0.00 | 1.54 | 0.39 | 61 | 1012.7 |
| 20260509002551 | 56 | 311 | 3.0 | 9.0 | 0.00 | 1.54 | 0.39 | 61 | 1012.7 |
| 20260509002034 | 56 | 330 | 5.0 | 9.0 | 0.00 | 1.54 | 0.39 | 60 | 1012.6 |
| 20260509001541 | 56 | 309 | 5.0 | 9.0 | 0.00 | 1.54 | 0.39 | 59 | 1012.6 |
| 20260509001043 | 56 | 342 | 4.0 | 9.0 | 0.00 | 1.54 | 0.39 | 59 | 1012.8 |
| 20260509000525 | 56 | 4 | 5.0 | 9.0 | 0.00 | 1.54 | 0.39 | 59 | 1012.8 |
| 20260509000051 | 56 | 346 | 4.0 | 9.0 | 0.00 | 1.54 | 0.39 | 59 | 1012.8 |
| 20260508235537 | 56 | 340 | 3.0 | 8.0 | 0.00 | 1.54 | 0.39 | 59 | 1012.7 |
| 20260508235039 | 56 | 10 | 4.0 | 9.0 | 0.00 | 1.54 | 0.39 | 59 | 1012.7 |
| 20260508234543 | 56 | 312 | 4.0 | 10.0 | 0.00 | 1.54 | 0.39 | 59 | 1012.6 |
| 20260508234104 | 57 | 352 | 5.0 | 9.0 | 0.00 | 1.54 | 0.39 | 58 | 1012.5 |
| 20260508233526 | 57 | 313 | 4.0 | 8.0 | 0.00 | 1.54 | 0.39 | 58 | 1012.5 |
| 20260508233030 | 57 | 3 | 4.0 | 9.0 | 0.00 | 1.54 | 0.39 | 58 | 1012.5 |
| 20260508232530 | 57 | 5 | 4.0 | 9.0 | 0.00 | 1.54 | 0.39 | 57 | 1012.4 |
| 20260508232034 | 57 | 317 | 4.0 | 10.0 | 0.00 | 1.54 | 0.39 | 57 | 1012.3 |
| 20260508231541 | 57 | 329 | 5.0 | 10.0 | 0.00 | 1.54 | 0.39 | 57 | 1012.1 |
| 20260508231027 | 57 | 10 | 5.0 | 12.0 | 0.00 | 1.54 | 0.39 | 57 | 1012.2 |
| 20260508230530 | 57 | 345 | 5.0 | 12.0 | 0.00 | 1.54 | 0.39 | 57 | 1012.2 |
| 20260508230038 | 57 | 284 | 4.0 | 8.0 | 0.00 | 1.54 | 0.39 | 58 | 1012.2 |
| 20260508225541 | 57 | 337 | 3.0 | 9.0 | 0.00 | 1.54 | 0.39 | 59 | 1012.0 |
| 20260508225044 | 57 | 11 | 4.0 | 11.0 | 0.00 | 1.54 | 0.39 | 60 | 1011.9 |
| 20260508224528 | 57 | 354 | 2.0 | 8.0 | 0.00 | 1.54 | 0.39 | 61 | 1011.7 |
| 20260508224052 | 57 | 358 | 3.0 | 7.0 | 0.00 | 1.54 | 0.39 | 60 | 1011.4 |
| 20260508223533 | 57 | 343 | 4.0 | 7.0 | 0.00 | 1.54 | 0.39 | 60 | 1011.3 |
| 20260508223037 | 57 | 359 | 4.0 | 8.0 | 0.00 | 1.54 | 0.39 | 60 | 1011.4 |
| 20260508222542 | 57 | 9 | 5.0 | 9.0 | 0.00 | 1.54 | 0.39 | 60 | 1011.6 |
| 20260508222106 | 57 | 335 | 5.0 | 9.0 | 0.00 | 1.54 | 0.39 | 59 | 1011.7 |
| 20260508221529 | 57 | 360 | 5.0 | 9.0 | 0.00 | 1.54 | 0.39 | 59 | 1011.7 |
| 20260508221032 | 57 | 327 | 5.0 | 9.0 | 0.00 | 1.54 | 0.39 | 59 | 1011.7 |
| 20260508220536 | 57 | 332 | 4.0 | 11.0 | 0.00 | 1.54 | 0.39 | 58 | 1011.6 |
| 20260508220041 | 57 | 323 | 5.0 | 11.0 | 0.00 | 1.54 | 0.39 | 58 | 1011.3 |
| 20260508215529 | 57 | 360 | 4.0 | 6.0 | 0.00 | 1.54 | 0.39 | 58 | 1011.2 |
| 20260508215031 | 57 | 303 | 4.0 | 16.0 | 0.00 | 1.54 | 0.39 | 57 | 1011.1 |
| 20260508214533 | 57 | 2 | 5.0 | 16.0 | 0.00 | 1.54 | 0.39 | 57 | 1011.0 |
| 20260508214038 | 57 | 6 | 5.0 | 9.0 | 0.00 | 1.54 | 0.39 | 57 | 1010.9 |
| 20260508213543 | 57 | 5 | 4.0 | 9.0 | 0.00 | 1.54 | 0.39 | 56 | 1010.8 |
| 20260508213106 | 57 | 332 | 5.0 | 9.0 | 0.00 | 1.54 | 0.39 | 56 | 1010.8 |
| 20260508212544 | 58 | 304 | 4.0 | 9.0 | 0.00 | 1.54 | 0.39 | 55 | 1010.8 |
| 20260508212025 | 58 | 313 | 3.0 | 9.0 | 0.00 | 1.54 | 0.39 | 54 | 1010.7 |
| 20260508211532 | 58 | 1 | 5.0 | 10.0 | 0.00 | 1.54 | 0.39 | 54 | 1010.6 |
| 20260508211055 | 58 | 334 | 5.0 | 14.0 | 0.00 | 1.54 | 0.39 | 53 | 1010.5 |
| 20260508210538 | 58 | 307 | 6.0 | 14.0 | 0.00 | 1.54 | 0.39 | 53 | 1010.5 |
| 20260508205543 | 59 | 344 | 6.0 | 12.0 | 0.00 | 1.54 | 0.39 | 52 | 1010.5 |
| 20260508205027 | 59 | 4 | 6.0 | 12.0 | 0.00 | 1.54 | 0.39 | 51 | 1010.3 |
| 20260508204534 | 59 | 295 | 6.0 | 18.0 | 0.00 | 1.54 | 0.39 | 51 | 1010.1 |
| 20260508204036 | 59 | 24 | 7.0 | 13.0 | 0.00 | 1.54 | 0.39 | 50 | 1010.1 |
| 20260508203600 | 59 | 344 | 5.0 | 15.0 | 0.00 | 1.54 | 0.39 | 50 | 1010.2 |
| 20260508203041 | 60 | 339 | 8.0 | 15.0 | 0.00 | 1.54 | 0.39 | 49 | 1010.1 |
| 20260508202547 | 60 | 332 | 7.0 | 15.0 | 0.00 | 1.54 | 0.39 | 48 | 1010.1 |
| 20260508202047 | 61 | 353 | 7.0 | 15.0 | 0.00 | 1.54 | 0.39 | 48 | 1010.1 |
| 20260508201528 | 61 | 13 | 7.0 | 14.0 | 0.00 | 1.54 | 0.39 | 47 | 1010.0 |
| 20260508201030 | 61 | 360 | 6.0 | 15.0 | 0.00 | 1.54 | 0.39 | 47 | 1010.1 |
| 20260508200532 | 62 | 329 | 7.0 | 15.0 | 0.00 | 1.54 | 0.39 | 47 | 1010.1 |
| 20260508200040 | 62 | 349 | 6.0 | 15.0 | 0.00 | 1.54 | 0.39 | 46 | 1010.1 |
| 20260508195601 | 62 | 348 | 8.0 | 15.0 | 0.00 | 1.54 | 0.39 | 45 | 1010.1 |
| 20260508195044 | 62 | 6 | 6.0 | 15.0 | 0.00 | 1.54 | 0.39 | 45 | 1010.1 |
| 20260508194546 | 62 | 285 | 8.0 | 15.0 | 0.00 | 1.54 | 0.39 | 45 | 1010.1 |
| 20260508194027 | 62 | 302 | 8.0 | 20.0 | 0.00 | 1.54 | 0.39 | 44 | 1010.1 |
| 20260508193535 | 63 | 354 | 10.0 | 20.0 | 0.00 | 1.54 | 0.39 | 43 | 1010.0 |
| 20260508193039 | 63 | 340 | 8.0 | 19.0 | 0.00 | 1.54 | 0.39 | 43 | 1010.0 |
| 20260508192601 | 63 | 345 | 8.0 | 19.0 | 0.00 | 1.54 | 0.39 | 45 | 1010.0 |
| 20260508192041 | 63 | 12 | 7.0 | 15.0 | 0.00 | 1.54 | 0.39 | 45 | 1010.1 |
| 20260508191543 | 63 | 340 | 5.0 | 18.0 | 0.00 | 1.54 | 0.39 | 45 | 1010.2 |
| 20260508191045 | 63 | 255 | 6.0 | 18.0 | 0.00 | 1.54 | 0.39 | 45 | 1010.1 |
| 20260508190529 | 64 | 342 | 8.0 | 14.0 | 0.00 | 1.54 | 0.39 | 44 | 1010.1 |
| 20260508190033 | 64 | 3 | 8.0 | 16.0 | 0.00 | 1.54 | 0.39 | 44 | 1010.0 |
| 20260508185535 | 64 | 329 | 5.0 | 11.0 | 0.00 | 1.54 | 0.39 | 44 | 1010.0 |
| 20260508185035 | 64 | 357 | 5.0 | 13.0 | 0.00 | 1.54 | 0.39 | 44 | 1010.0 |
| 20260508184556 | 64 | 328 | 5.0 | 14.0 | 0.00 | 1.54 | 0.39 | 43 | 1009.9 |